| time (UTC) | temp C | wind direction | speed KPH | gust KPH | rain 1hr cm | rain 24hr cm | rain mn cm | humidity % | barometer mb |
| 20260831234205 | -17 | 0.0 | 0.0 | 0.00 | 0.00 | 0.00 | 1019.4 | ||
| 20260831233719 | -17 | 0.0 | 0.0 | 0.00 | 0.00 | 0.00 | 1019.4 | ||
| 20260831233212 | -17 | 0.0 | 0.0 | 0.00 | 0.00 | 0.00 | 1019.4 | ||
| 20260831232702 | -17 | 0.0 | 0.0 | 0.00 | 0.00 | 0.00 | 1019.5 | ||
| 20260831232216 | -17 | 0.0 | 0.0 | 0.00 | 0.00 | 0.00 | 1019.5 | ||
| 20260831231711 | -17 | 0.0 | 0.0 | 0.00 | 0.00 | 0.00 | 1019.5 | ||
| 20260831231207 | -17 | 0.0 | 0.0 | 0.00 | 0.00 | 0.00 | 1019.6 | ||
| 20260831230703 | -17 | 0.0 | 0.0 | 0.00 | 0.00 | 0.00 | 1019.6 | ||
| 20260831230217 | -17 | 0.0 | 0.0 | 0.00 | 0.00 | 0.00 | 1019.6 | ||
| 20260831225712 | -17 | 0.0 | 0.0 | 0.00 | 0.00 | 0.00 | 1019.6 | ||
| 20260831225206 | -17 | 0.0 | 0.0 | 0.00 | 0.00 | 0.00 | 1019.6 | ||
| 20260831224703 | -17 | 0.0 | 0.0 | 0.00 | 0.00 | 0.00 | 1019.6 | ||
| 20260831224218 | -17 | 0.0 | 0.0 | 0.00 | 0.00 | 0.00 | 1019.6 | ||
| 20260831223709 | -17 | 0.0 | 0.0 | 0.00 | 0.00 | 0.00 | 1019.6 | ||
| 20260831223203 | -17 | 0.0 | 0.0 | 0.00 | 0.00 | 0.00 | 1019.6 | ||
| 20260831222718 | -17 | 0.0 | 0.0 | 0.00 | 0.00 | 0.00 | 1019.6 | ||
| 20260831222214 | -17 | 0.0 | 0.0 | 0.00 | 0.00 | 0.00 | 1019.6 | ||
| 20260831221710 | -17 | 0.0 | 0.0 | 0.00 | 0.00 | 0.00 | 1019.6 | ||
| 20260831221204 | -17 | 0.0 | 0.0 | 0.00 | 0.00 | 0.00 | 1019.8 | ||
| 20260831220719 | -17 | 0.0 | 0.0 | 0.00 | 0.00 | 0.00 | 1019.8 | ||
| 20260831220213 | -17 | 0.0 | 0.0 | 0.00 | 0.00 | 0.33 | 1019.8 | ||
| 20260831215707 | -17 | 0.0 | 0.0 | 0.00 | 0.00 | 0.33 | 1019.8 | ||
| 20260831215203 | -17 | 0.0 | 0.0 | 0.00 | 0.00 | 0.33 | 1019.8 | ||
| 20260831214714 | -17 | 0.0 | 0.0 | 0.00 | 0.00 | 0.33 | 1019.8 | ||
| 20260831214209 | -17 | 0.0 | 0.0 | 0.00 | 0.00 | 0.33 | 1019.7 | ||
| 20260831213702 | -17 | 0.0 | 0.0 | 0.00 | 0.00 | 0.33 | 1019.7 | ||
| 20260831213219 | -17 | 0.0 | 0.0 | 0.00 | 0.00 | 0.33 | 1019.7 | ||
| 20260831212715 | -17 | 0.0 | 0.0 | 0.00 | 0.00 | 0.33 | 1019.7 | ||
| 20260831212211 | -17 | 0.0 | 0.0 | 0.00 | 0.00 | 0.33 | 1019.7 | ||
| 20260831211707 | -17 | 0.0 | 0.0 | 0.00 | 0.00 | 0.33 | 1019.7 | ||
| 20260831211222 | -17 | 0.0 | 0.0 | 0.00 | 0.00 | 0.33 | 1019.1 | ||
| 20260831210716 | -17 | 0.0 | 0.0 | 0.00 | 0.00 | 0.33 | 1019.1 | ||
| 20260831210210 | -17 | 0.0 | 0.0 | 0.00 | 0.00 | 0.33 | 1019.1 | ||
| 20260831205705 | -17 | 0.0 | 0.0 | 0.00 | 0.00 | 0.33 | 1019.1 | ||
| 20260831205216 | -17 | 0.0 | 0.0 | 0.00 | 0.00 | 0.33 | 1019.1 | ||
| 20260831204719 | -17 | 0.0 | 0.0 | 0.00 | 0.00 | 0.33 | 1019.1 | ||
| 20260831204214 | 18 | 0.0 | 0.0 | 0.00 | 0.00 | 0.33 | 56 | 1019.0 | |
| 20260831203709 | 18 | 360 | 9.7 | 0.0 | 0.00 | 0.00 | 0.33 | 56 | 1019.0 |
| 20260831203220 | 18 | 259 | 8.0 | 0.0 | 0.00 | 0.00 | 0.33 | 56 | 1019.0 |
| 20260831202718 | 18 | 275 | 4.8 | 0.0 | 0.00 | 0.00 | 0.33 | 55 | 1018.8 |
| 20260831202217 | 18 | 278 | 3.2 | 0.0 | 0.00 | 0.00 | 0.33 | 55 | 1018.8 |
| 20260831201719 | 18 | 287 | 1.6 | 0.0 | 0.00 | 0.00 | 0.33 | 55 | 1018.8 |
| 20260831201219 | 18 | 243 | 0.0 | 0.0 | 0.00 | 0.00 | 0.33 | 55 | 1018.4 |
| 20260831200723 | 18 | 360 | 1.6 | 0.0 | 0.00 | 0.00 | 0.33 | 55 | 1018.4 |
| 20260831200208 | 18 | 360 | 1.6 | 0.0 | 0.00 | 0.00 | 0.33 | 54 | 1018.4 |
| 20260831195720 | 18 | 259 | 1.6 | 0.0 | 0.00 | 0.00 | 0.33 | 55 | 1018.3 |
| 20260831195205 | 18 | 259 | 6.4 | 0.0 | 0.00 | 0.00 | 0.33 | 55 | 1018.3 |
| 20260831194714 | 18 | 254 | 8.0 | 0.0 | 0.00 | 0.00 | 0.33 | 55 | 1018.3 |
| 20260831194223 | 18 | 250 | 8.0 | 0.0 | 0.00 | 0.00 | 0.33 | 54 | 1017.9 |
| 20260831193707 | 18 | 281 | 6.4 | 0.0 | 0.00 | 0.00 | 0.33 | 55 | 1017.9 |
| 20260831193211 | 18 | 254 | 3.2 | 0.0 | 0.00 | 0.00 | 0.33 | 55 | 1017.9 |
| 20260831192721 | 18 | 360 | 3.2 | 0.0 | 0.00 | 0.00 | 0.33 | 55 | 1017.8 |
| 20260831192205 | 18 | 269 | 3.2 | 0.0 | 0.00 | 0.00 | 0.33 | 55 | 1017.8 |
| 20260831191710 | 19 | 273 | 3.2 | 0.0 | 0.00 | 0.00 | 0.33 | 55 | 1017.8 |
| 20260831191216 | 19 | 268 | 1.6 | 0.0 | 0.00 | 0.00 | 0.33 | 55 | 1017.5 |
| 20260831190703 | 19 | 227 | 0.0 | 0.0 | 0.00 | 0.00 | 0.33 | 54 | 1017.5 |
| 20260831190208 | 19 | 360 | 1.6 | 0.0 | 0.00 | 0.00 | 0.33 | 54 | 1017.5 |
| 20260831185721 | 19 | 270 | 1.6 | 0.0 | 0.00 | 0.00 | 0.33 | 54 | 1017.4 |
| 20260831185213 | 19 | 360 | 0.0 | 0.0 | 0.00 | 0.00 | 0.33 | 54 | 1017.4 |
| 20260831184704 | 19 | 225 | 0.0 | 0.0 | 0.00 | 0.00 | 0.33 | 53 | 1017.4 |
| 20260831184210 | 20 | 242 | 0.0 | 0.0 | 0.00 | 0.00 | 0.33 | 53 | 1016.9 |
| 20260831183716 | 20 | 189 | 0.0 | 0.0 | 0.00 | 0.00 | 0.33 | 53 | 1016.9 |
| 20260831183221 | 20 | 244 | 1.6 | 0.0 | 0.00 | 0.00 | 0.33 | 52 | 1016.9 |
| 20260831182716 | 20 | 246 | 1.6 | 0.0 | 0.00 | 0.00 | 0.33 | 52 | 1016.4 |
| 20260831182204 | 20 | 360 | 1.6 | 0.0 | 0.00 | 0.00 | 0.33 | 51 | 1016.4 |
| 20260831181719 | 20 | 360 | 1.6 | 0.0 | 0.00 | 0.00 | 0.33 | 51 | 1016.4 |
| 20260831181214 | 20 | 238 | 3.2 | 0.0 | 0.00 | 0.00 | 0.33 | 51 | 1016.4 |
| 20260831180709 | 20 | 245 | 3.2 | 0.0 | 0.00 | 0.00 | 0.33 | 50 | 1016.4 |
| 20260831180222 | 20 | 260 | 1.6 | 0.0 | 0.00 | 0.00 | 0.33 | 50 | 1016.4 |
| 20260831175705 | 21 | 360 | 3.2 | 0.0 | 0.00 | 0.00 | 0.33 | 49 | 1016.2 |
| 20260831175211 | 21 | 275 | 4.8 | 0.0 | 0.00 | 0.00 | 0.33 | 49 | 1016.2 |
| 20260831174716 | 21 | 285 | 6.4 | 0.0 | 0.00 | 0.00 | 0.33 | 48 | 1016.2 |
| 20260831174221 | 21 | 360 | 6.4 | 0.0 | 0.00 | 0.00 | 0.33 | 48 | 1015.7 |
| 20260831173723 | 21 | 273 | 6.4 | 0.0 | 0.00 | 0.00 | 0.33 | 48 | 1015.7 |
| 20260831173225 | 21 | 360 | 4.8 | 0.0 | 0.00 | 0.00 | 0.33 | 47 | 1015.7 |
| 20260831172714 | 21 | 253 | 6.4 | 0.0 | 0.00 | 0.00 | 0.33 | 47 | 1015.6 |
| 20260831172206 | 21 | 360 | 9.7 | 0.0 | 0.00 | 0.00 | 0.33 | 46 | 1015.6 |
| 20260831171710 | 21 | 273 | 11.3 | 0.0 | 0.00 | 0.00 | 0.33 | 46 | 1015.6 |
| 20260831171214 | 21 | 290 | 11.3 | 0.0 | 0.00 | 0.00 | 0.33 | 46 | 1015.6 |
| 20260831170717 | 21 | 360 | 9.7 | 0.0 | 0.00 | 0.00 | 0.33 | 46 | 1015.6 |
| 20260831170202 | 21 | 281 | 12.9 | 0.0 | 0.00 | 0.00 | 0.33 | 46 | 1015.6 |
| 20260831165708 | 21 | 287 | 12.9 | 0.0 | 0.00 | 0.00 | 0.33 | 46 | 1015.5 |
| 20260831165213 | 22 | 286 | 8.0 | 0.0 | 0.00 | 0.00 | 0.33 | 46 | 1015.5 |
| 20260831164712 | 22 | 252 | 6.4 | 0.0 | 0.00 | 0.00 | 0.33 | 44 | 1015.5 |
| 20260831164218 | 22 | 360 | 6.4 | 0.0 | 0.00 | 0.00 | 0.33 | 44 | 1015.4 |
| 20260831163705 | 22 | 260 | 9.7 | 0.0 | 0.00 | 0.00 | 0.33 | 44 | 1015.4 |
| 20260831163206 | 22 | 247 | 8.0 | 0.0 | 0.00 | 0.00 | 0.33 | 44 | 1015.4 |
| 20260831162716 | 22 | 245 | 4.8 | 0.0 | 0.00 | 0.00 | 0.33 | 43 | 1015.3 |
| 20260831162215 | 22 | 278 | 6.4 | 0.0 | 0.00 | 0.00 | 0.33 | 43 | 1015.3 |
| 20260831161721 | 22 | 267 | 6.4 | 0.0 | 0.00 | 0.00 | 0.33 | 45 | 1015.3 |
| 20260831161207 | 22 | 360 | 4.8 | 0.0 | 0.00 | 0.00 | 0.33 | 43 | 1015.1 |
| 20260831160710 | 22 | 225 | 4.8 | 0.0 | 0.00 | 0.00 | 0.33 | 43 | 1015.1 |
| 20260831160214 | 23 | 303 | 3.2 | 0.0 | 0.00 | 0.00 | 0.33 | 44 | 1015.1 |
| 20260831155709 | 23 | 137 | 4.8 | 0.0 | 0.00 | 0.00 | 0.33 | 43 | 1015.0 |
| 20260831155219 | 23 | 269 | 3.2 | 0.0 | 0.00 | 0.00 | 0.33 | 44 | 1015.0 |
| 20260831154715 | 23 | 180 | 4.8 | 0.0 | 0.00 | 0.00 | 0.33 | 44 | 1015.0 |
| 20260831154220 | 23 | 213 | 6.4 | 0.0 | 0.00 | 0.00 | 0.33 | 43 | 1015.0 |
| 20260831153717 | 23 | 299 | 3.2 | 0.0 | 0.00 | 0.00 | 0.33 | 44 | 1015.0 |
| 20260831153220 | 23 | 360 | 6.4 | 0.0 | 0.00 | 0.00 | 0.33 | 45 | 1015.0 |
| 20260831152706 | 23 | 172 | 8.0 | 0.0 | 0.00 | 0.00 | 0.33 | 44 | 1015.3 |
| 20260831152213 | 23 | 288 | 8.0 | 0.0 | 0.00 | 0.00 | 0.33 | 44 | 1015.3 |
| 20260831151718 | 23 | 123 | 4.8 | 0.0 | 0.00 | 0.00 | 0.33 | 43 | 1015.3 |
| 20260831151220 | 23 | 360 | 3.2 | 0.0 | 0.00 | 0.00 | 0.33 | 45 | 1015.5 |
| 20260831150704 | 22 | 102 | 4.8 | 0.0 | 0.00 | 0.00 | 0.33 | 47 | 1015.5 |
| 20260831150216 | 22 | 271 | 8.0 | 0.0 | 0.00 | 0.00 | 0.33 | 47 | 1015.5 |
| 20260831145719 | 22 | 360 | 9.7 | 0.0 | 0.00 | 0.00 | 0.33 | 46 | 1015.4 |
| 20260831145209 | 22 | 252 | 12.9 | 0.0 | 0.00 | 0.00 | 0.33 | 44 | 1015.4 |
| 20260831144714 | 23 | 243 | 14.5 | 0.0 | 0.00 | 0.00 | 0.33 | 45 | 1015.4 |
| 20260831144209 | 23 | 288 | 12.9 | 0.0 | 0.00 | 0.00 | 0.33 | 46 | 1015.3 |
| 20260831143714 | 23 | 242 | 11.3 | 0.0 | 0.00 | 0.00 | 0.33 | 46 | 1015.3 |
| 20260831143214 | 23 | 360 | 11.3 | 0.0 | 0.00 | 0.00 | 0.33 | 43 | 1015.3 |
| 20260831142717 | 23 | 274 | 16.1 | 0.0 | 0.00 | 0.00 | 0.33 | 44 | 1015.2 |
| 20260831142219 | 23 | 272 | 16.1 | 0.0 | 0.00 | 0.00 | 0.33 | 43 | 1015.2 |
| 20260831141724 | 23 | 336 | 12.9 | 0.0 | 0.00 | 0.00 | 0.33 | 45 | 1015.2 |
| 20260831141204 | 23 | 271 | 12.9 | 0.0 | 0.00 | 0.00 | 0.33 | 46 | 1015.2 |
| 20260831140723 | 23 | 287 | 9.7 | 0.0 | 0.00 | 0.00 | 0.33 | 46 | 1015.2 |
| 20260831140207 | 23 | 265 | 11.3 | 0.0 | 0.00 | 0.00 | 0.33 | 46 | 1015.2 |
| 20260831135710 | 23 | 360 | 14.5 | 0.0 | 0.00 | 0.00 | 0.33 | 44 | 1015.4 |
| 20260831135212 | 23 | 268 | 11.3 | 0.0 | 0.00 | 0.00 | 0.33 | 46 | 1015.4 |
| 20260831134721 | 23 | 213 | 9.7 | 0.0 | 0.00 | 0.00 | 0.33 | 45 | 1015.4 |
| 20260831134204 | 23 | 271 | 12.9 | 0.0 | 0.00 | 0.00 | 0.33 | 48 | 1015.5 |
| 20260831133709 | 22 | 314 | 11.3 | 0.0 | 0.00 | 0.00 | 0.33 | 49 | 1015.5 |
| 20260831133224 | 22 | 304 | 11.3 | 0.0 | 0.00 | 0.00 | 0.33 | 48 | 1015.5 |
| 20260831132710 | 22 | 254 | 9.7 | 0.0 | 0.00 | 0.00 | 0.33 | 46 | 1015.5 |
| 20260831132210 | 22 | 360 | 8.0 | 0.0 | 0.00 | 0.00 | 0.33 | 47 | 1015.5 |
| 20260831131708 | 22 | 121 | 8.0 | 0.0 | 0.00 | 0.00 | 0.33 | 49 | 1015.5 |
| 20260831131216 | 22 | 311 | 6.4 | 0.0 | 0.00 | 0.00 | 0.33 | 51 | 1015.5 |
| 20260831130719 | 22 | 286 | 4.8 | 0.0 | 0.00 | 0.00 | 0.33 | 49 | 1015.5 |
| 20260831130204 | 22 | 219 | 6.4 | 0.0 | 0.00 | 0.00 | 0.33 | 50 | 1015.5 |
| 20260831125723 | 22 | 360 | 8.0 | 0.0 | 0.00 | 0.00 | 0.33 | 50 | 1015.5 |
| 20260831125210 | 22 | 300 | 9.7 | 0.0 | 0.00 | 0.00 | 0.33 | 50 | 1015.5 |
| 20260831124713 | 22 | 318 | 9.7 | 0.0 | 0.00 | 0.00 | 0.33 | 49 | 1015.5 |
| 20260831124216 | 22 | 360 | 9.7 | 0.0 | 0.00 | 0.00 | 0.33 | 51 | 1015.5 |
| 20260831123704 | 22 | 360 | 11.3 | 0.0 | 0.00 | 0.00 | 0.33 | 50 | 1015.5 |
| 20260831123206 | 22 | 360 | 11.3 | 0.0 | 0.00 | 0.00 | 0.33 | 50 | 1015.5 |
| 20260831122712 | 22 | 265 | 8.0 | 0.0 | 0.00 | 0.00 | 0.33 | 51 | 1015.5 |
| 20260831122211 | 22 | 227 | 8.0 | 0.0 | 0.00 | 0.00 | 0.33 | 49 | 1015.5 |
| 20260831121716 | 22 | 360 | 8.0 | 0.0 | 0.00 | 0.00 | 0.33 | 52 | 1015.5 |
| 20260831121207 | 22 | 281 | 9.7 | 0.0 | 0.00 | 0.00 | 0.33 | 52 | 1015.4 |
| 20260831120711 | 22 | 317 | 9.7 | 0.0 | 0.00 | 0.00 | 0.33 | 54 | 1015.4 |
| 20260831120226 | 22 | 360 | 6.4 | 0.0 | 0.00 | 0.00 | 0.33 | 56 | 1015.4 |
| 20260831115711 | 22 | 180 | 8.0 | 0.0 | 0.00 | 0.00 | 0.33 | 55 | 1015.6 |
| 20260831115214 | 22 | 269 | 11.3 | 0.0 | 0.00 | 0.00 | 0.33 | 53 | 1015.6 |
| 20260831114726 | 22 | 272 | 9.7 | 0.0 | 0.00 | 0.00 | 0.33 | 54 | 1015.6 |
| 20260831114205 | 22 | 360 | 9.7 | 0.0 | 0.00 | 0.00 | 0.33 | 53 | 1015.8 |
| 20260831113710 | 22 | 245 | 14.5 | 0.0 | 0.00 | 0.00 | 0.33 | 56 | 1015.8 |
| 20260831113211 | 22 | 178 | 17.7 | 0.0 | 0.00 | 0.00 | 0.33 | 55 | 1015.8 |
| 20260831112715 | 22 | 341 | 12.9 | 0.0 | 0.00 | 0.00 | 0.33 | 57 | 1016.5 |
| 20260831112204 | 22 | 268 | 8.0 | 0.0 | 0.00 | 0.00 | 0.33 | 57 | 1016.5 |
| 20260831111727 | 22 | 213 | 8.0 | 0.0 | 0.00 | 0.00 | 0.33 | 57 | 1016.5 |
| 20260831111212 | 22 | 147 | 6.4 | 0.0 | 0.00 | 0.00 | 0.33 | 60 | 1016.5 |
| 20260831110711 | 22 | 360 | 11.3 | 0.0 | 0.00 | 0.00 | 0.33 | 58 | 1016.5 |
| 20260831110221 | 22 | 221 | 11.3 | 0.0 | 0.00 | 0.00 | 0.33 | 59 | 1016.5 |
| 20260831105704 | 22 | 235 | 9.7 | 0.0 | 0.00 | 0.00 | 0.33 | 63 | 1015.9 |
| 20260831105226 | 21 | 123 | 9.7 | 0.0 | 0.00 | 0.00 | 0.33 | 63 | 1015.9 |
| 20260831104712 | 21 | 292 | 8.0 | 0.0 | 0.00 | 0.00 | 0.33 | 64 | 1015.9 |
| 20260831104215 | 21 | 360 | 8.0 | 0.0 | 0.00 | 0.00 | 0.33 | 64 | 1016.1 |
| 20260831103706 | 21 | 231 | 8.0 | 0.0 | 0.00 | 0.00 | 0.33 | 64 | 1016.1 |
| 20260831103206 | 20 | 49 | 9.7 | 0.0 | 0.00 | 0.00 | 0.33 | 65 | 1016.1 |
| 20260831102722 | 21 | 360 | 9.7 | 0.0 | 0.00 | 0.00 | 0.33 | 64 | 1016.1 |
| 20260831102213 | 21 | 279 | 4.8 | 0.0 | 0.00 | 0.00 | 0.33 | 66 | 1016.1 |
| 20260831101716 | 20 | 257 | 4.8 | 0.0 | 0.00 | 0.00 | 0.33 | 67 | 1016.1 |
| 20260831101219 | 20 | 355 | 4.8 | 0.0 | 0.00 | 0.00 | 0.33 | 67 | 1016.8 |
| 20260831100706 | 21 | 307 | 3.2 | 0.0 | 0.00 | 0.00 | 0.33 | 64 | 1016.8 |
| 20260831100214 | 21 | 44 | 1.6 | 0.0 | 0.00 | 0.00 | 0.33 | 66 | 1016.8 |
| 20260831095719 | 21 | 177 | 1.6 | 0.0 | 0.00 | 0.00 | 0.33 | 68 | 1016.2 |
| 20260831095216 | 20 | 160 | 1.6 | 0.0 | 0.00 | 0.00 | 0.33 | 68 | 1016.2 |
| 20260831094713 | 20 | 213 | 0.0 | 0.0 | 0.00 | 0.00 | 0.33 | 69 | 1016.2 |
| 20260831094226 | 20 | 360 | 0.0 | 0.0 | 0.00 | 0.00 | 0.33 | 72 | 1016.2 |
| 20260831093712 | 19 | 153 | 1.6 | 0.0 | 0.00 | 0.00 | 0.33 | 69 | 1016.2 |
| 20260831093216 | 20 | 182 | 1.6 | 0.0 | 0.00 | 0.00 | 0.33 | 70 | 1016.2 |
| 20260831092722 | 20 | 238 | 1.6 | 0.0 | 0.00 | 0.00 | 0.33 | 69 | 1016.1 |
| 20260831092222 | 20 | 182 | 1.6 | 0.0 | 0.00 | 0.00 | 0.33 | 68 | 1016.1 |
| 20260831091721 | 20 | 182 | 3.2 | 0.0 | 0.00 | 0.00 | 0.33 | 69 | 1016.1 |
| 20260831091207 | 19 | 360 | 1.6 | 0.0 | 0.00 | 0.00 | 0.33 | 70 | 1016.2 |
| 20260831090710 | 19 | 195 | 1.6 | 0.0 | 0.00 | 0.00 | 0.33 | 71 | 1016.2 |
| 20260831090217 | 19 | 191 | 1.6 | 0.0 | 0.00 | 0.00 | 0.33 | 71 | 1016.2 |
| 20260831085722 | 19 | 360 | 1.6 | 0.0 | 0.00 | 0.00 | 0.33 | 70 | 1016.0 |
| 20260831085208 | 20 | 236 | 3.2 | 0.0 | 0.00 | 0.00 | 0.33 | 70 | 1016.0 |
| 20260831084711 | 20 | 360 | 3.2 | 0.0 | 0.00 | 0.00 | 0.33 | 71 | 1016.0 |
| 20260831084213 | 19 | 292 | 4.8 | 0.0 | 0.00 | 0.00 | 0.33 | 73 | 1016.1 |
| 20260831083724 | 18 | 360 | 6.4 | 0.0 | 0.00 | 0.00 | 0.33 | 73 | 1016.1 |
| 20260831083224 | 18 | 241 | 6.4 | 0.0 | 0.00 | 0.00 | 0.33 | 73 | 1016.1 |
| 20260831082726 | 19 | 244 | 3.2 | 0.0 | 0.00 | 0.00 | 0.33 | 75 | 1016.0 |
| 20260831082212 | 18 | 360 | 4.8 | 0.0 | 0.00 | 0.00 | 0.33 | 76 | 1016.0 |
| 20260831081712 | 18 | 214 | 6.4 | 0.0 | 0.00 | 0.00 | 0.33 | 76 | 1016.0 |
| 20260831081212 | 18 | 0.0 | 0.0 | 0.00 | 0.00 | 0.33 | 74 | 1015.9 | |
| 20260831080711 | 19 | 198 | 4.8 | 0.0 | 0.00 | 0.00 | 0.33 | 76 | 1015.9 |
| 20260831080214 | 18 | 360 | 8.0 | 0.0 | 0.00 | 0.00 | 0.33 | 78 | 1015.9 |
| 20260831075719 | 18 | 275 | 8.0 | 0.0 | 0.00 | 0.00 | 0.33 | 77 | 1015.6 |
| 20260831075204 | 18 | 360 | 6.4 | 0.0 | 0.00 | 0.00 | 0.33 | 78 | 1015.6 |
| 20260831074719 | 18 | 230 | 4.8 | 0.0 | 0.00 | 0.00 | 0.33 | 78 | 1015.6 |
| 20260831074220 | 18 | 281 | 3.2 | 0.0 | 0.00 | 0.00 | 0.33 | 79 | 1015.7 |
| 20260831073719 | 18 | 360 | 3.2 | 0.0 | 0.00 | 0.00 | 0.33 | 79 | 1015.7 |
| 20260831073210 | 17 | 238 | 3.2 | 0.0 | 0.00 | 0.00 | 0.33 | 81 | 1015.7 |
| 20260831072714 | 17 | 149 | 1.6 | 0.0 | 0.00 | 0.00 | 0.33 | 80 | 1015.7 |
| 20260831072219 | 17 | 297 | 3.2 | 0.0 | 0.00 | 0.00 | 0.33 | 81 | 1015.7 |
| 20260831071721 | 17 | 239 | 4.8 | 0.0 | 0.00 | 0.00 | 0.33 | 80 | 1015.7 |
| 20260831071210 | 17 | 227 | 4.8 | 0.0 | 0.00 | 0.00 | 0.33 | 80 | 1015.4 |
| 20260831070715 | 17 | 360 | 1.6 | 0.0 | 0.00 | 0.00 | 0.33 | 81 | 1015.4 |
| 20260831070221 | 17 | 209 | 1.6 | 0.0 | 0.00 | 0.00 | 0.33 | 82 | 1015.4 |
| 20260831065723 | 17 | 221 | 1.6 | 0.0 | 0.00 | 0.00 | 0.33 | 82 | 1015.2 |
| 20260831065212 | 17 | 276 | 1.6 | 0.0 | 0.00 | 0.00 | 0.33 | 83 | 1015.2 |
| 20260831064715 | 16 | 257 | 1.6 | 0.0 | 0.00 | 0.00 | 0.33 | 83 | 1015.2 |
| 20260831064222 | 16 | 170 | 1.6 | 0.0 | 0.00 | 0.00 | 0.33 | 83 | 1015.0 |
| 20260831063711 | 16 | 209 | 3.2 | 0.0 | 0.00 | 0.00 | 0.33 | 83 | 1015.0 |
| 20260831063212 | 16 | 234 | 1.6 | 0.0 | 0.00 | 0.00 | 0.33 | 84 | 1015.0 |
| 20260831062714 | 16 | 271 | 1.6 | 0.0 | 0.00 | 0.00 | 0.33 | 84 | 1015.1 |
| 20260831062219 | 16 | 171 | 1.6 | 0.0 | 0.00 | 0.00 | 0.33 | 85 | 1015.1 |
| 20260831061718 | 16 | 276 | 1.6 | 0.0 | 0.00 | 0.00 | 0.33 | 85 | 1015.1 |
| 20260831061221 | 16 | 196 | 1.6 | 0.0 | 0.00 | 0.00 | 0.33 | 85 | 1014.8 |
| 20260831060709 | 16 | 294 | 1.6 | 0.0 | 0.00 | 0.00 | 0.33 | 86 | 1014.8 |
| 20260831060215 | 16 | 167 | 0.0 | 0.0 | 0.00 | 0.00 | 0.33 | 86 | 1014.8 |
| 20260831055717 | 16 | 228 | 0.0 | 0.0 | 0.00 | 0.00 | 0.33 | 86 | 1014.8 |
| 20260831055222 | 16 | 175 | 0.0 | 0.0 | 0.00 | 0.00 | 0.33 | 86 | 1014.8 |
| 20260831054711 | 16 | 178 | 0.0 | 0.0 | 0.00 | 0.00 | 0.33 | 86 | 1014.8 |
| 20260831054210 | 16 | 183 | 0.0 | 0.0 | 0.00 | 0.00 | 0.33 | 86 | 1014.9 |
| 20260831053713 | 16 | 173 | 0.0 | 0.0 | 0.00 | 0.00 | 0.33 | 86 | 1014.9 |
| 20260831053204 | 16 | 159 | 0.0 | 0.0 | 0.00 | 0.00 | 0.33 | 86 | 1014.9 |
| 20260831052718 | 15 | 360 | 0.0 | 0.0 | 0.00 | 0.00 | 0.33 | 86 | 1015.0 |
| 20260831052211 | 15 | 188 | 0.0 | 0.0 | 0.00 | 0.00 | 0.33 | 86 | 1015.0 |
| 20260831051705 | 15 | 154 | 0.0 | 0.0 | 0.00 | 0.00 | 0.33 | 1015.0 | |
| 20260831051212 | 15 | 0.0 | 0.0 | 0.00 | 0.00 | 0.33 | 1014.8 | ||
| 20260831050720 | 15 | 0.0 | 0.0 | 0.00 | 0.00 | 0.33 | 1014.8 | ||
| 20260831050210 | 15 | 194 | 1.6 | 0.0 | 0.00 | 0.00 | 0.33 | 1014.8 | |
| 20260831045722 | 15 | 192 | 1.6 | 0.0 | 0.00 | 0.00 | 0.33 | 1014.4 | |
| 20260831045211 | -17 | 0.0 | 0.0 | 0.00 | 0.00 | 0.33 | 1014.4 | ||
| 20260831044718 | -17 | 0.0 | 0.0 | 0.00 | 0.00 | 0.33 | 1014.4 | ||
| 20260831044223 | -17 | 0.0 | 0.0 | 0.00 | 0.00 | 0.33 | 1014.4 | ||
| 20260831043725 | -17 | 0.0 | 0.0 | 0.00 | 0.00 | 0.33 | 1014.4 | ||
| 20260831043208 | -17 | 0.0 | 0.0 | 0.00 | 0.00 | 0.33 | 1014.4 | ||
| 20260831042724 | -17 | 0.0 | 0.0 | 0.00 | 0.00 | 0.33 | 1014.3 | ||
| 20260831042215 | -17 | 0.0 | 0.0 | 0.00 | 0.00 | 0.33 | 1014.3 | ||
| 20260831041719 | -17 | 0.0 | 0.0 | 0.00 | 0.00 | 0.33 | 1014.3 | ||
| 20260831041210 | 15 | 0.0 | 0.0 | 0.00 | 0.00 | 0.33 | 84 | 1014.3 | |
| 20260831040725 | 15 | 0.0 | 0.0 | 0.00 | 0.00 | 0.33 | 84 | 1014.3 | |
| 20260831040212 | 15 | 197 | 1.6 | 0.0 | 0.00 | 0.00 | 0.33 | 84 | 1014.3 |
| 20260831035719 | 15 | 120 | 1.6 | 0.0 | 0.00 | 0.00 | 0.33 | 84 | 1014.2 |
| 20260831035215 | 15 | 164 | 1.6 | 0.0 | 0.00 | 0.00 | 0.33 | 84 | 1014.2 |
| 20260831034723 | 15 | 173 | 1.6 | 0.0 | 0.00 | 0.00 | 0.33 | 84 | 1014.2 |
| 20260831034208 | 15 | 191 | 1.6 | 0.0 | 0.00 | 0.00 | 0.33 | 84 | 1014.2 |
| 20260831033708 | 15 | 186 | 1.6 | 0.0 | 0.00 | 0.00 | 0.33 | 84 | 1014.2 |
| 20260831033215 | 15 | 162 | 0.0 | 0.0 | 0.00 | 0.00 | 0.33 | 84 | 1014.2 |
| 20260831032718 | 15 | 157 | 0.0 | 0.0 | 0.00 | 0.00 | 0.33 | 84 | 1015.0 |
| 20260831032223 | 16 | 168 | 1.6 | 0.0 | 0.00 | 0.00 | 0.33 | 84 | 1015.0 |
| 20260831031712 | 16 | 173 | 0.0 | 0.0 | 0.00 | 0.00 | 0.33 | 84 | 1015.0 |
| 20260831031214 | 16 | 160 | 0.0 | 0.0 | 0.00 | 0.00 | 0.33 | 84 | 1015.2 |
| 20260831030720 | 16 | 160 | 0.0 | 0.0 | 0.00 | 0.00 | 0.33 | 83 | 1015.2 |
| 20260831030222 | 16 | 160 | 0.0 | 0.0 | 0.00 | 0.00 | 0.33 | 83 | 1015.2 |
| 20260831025714 | 16 | 173 | 0.0 | 0.0 | 0.00 | 0.00 | 0.33 | 83 | 1014.9 |
| 20260831025220 | 16 | 199 | 1.6 | 0.0 | 0.00 | 0.00 | 0.33 | 83 | 1014.9 |
| 20260831024727 | 16 | 260 | 3.2 | 0.0 | 0.00 | 0.00 | 0.30 | 83 | 1014.9 |
| 20260831024215 | 16 | 252 | 6.4 | 0.0 | 0.00 | 0.00 | 0.30 | 82 | 1015.5 |
| 20260831023714 | 16 | 276 | 11.3 | 0.0 | 0.00 | 0.00 | 0.28 | 82 | 1015.5 |
| 20260831023218 | 16 | 284 | 17.7 | 0.0 | 0.00 | 0.00 | 0.25 | 82 | 1015.5 |
| 20260831022706 | 16 | 252 | 20.9 | 0.0 | 0.00 | 0.00 | 0.23 | 81 | 1015.7 |
| 20260831022210 | 16 | 360 | 22.5 | 0.0 | 0.00 | 0.00 | 0.15 | 81 | 1015.7 |
| 20260831021723 | 17 | 276 | 22.5 | 0.0 | 0.00 | 0.00 | 0.05 | 80 | 1015.7 |
| 20260831021211 | 17 | 279 | 22.5 | 0.0 | 0.00 | 0.00 | 0.00 | 79 | 1014.9 |
| 20260831020709 | 17 | 302 | 20.9 | 0.0 | 0.00 | 0.00 | 0.00 | 80 | 1014.9 |
| 20260831020223 | 16 | 299 | 14.5 | 0.0 | 0.00 | 0.00 | 0.00 | 81 | 1014.9 |
| 20260831015712 | 16 | 360 | 4.8 | 0.0 | 0.00 | 0.00 | 0.00 | 81 | 1012.6 |
| 20260831015206 | 16 | 151 | 0.0 | 0.0 | 0.00 | 0.00 | 0.00 | 80 | 1012.6 |
| 20260831014713 | 16 | 360 | 0.0 | 0.0 | 0.00 | 0.00 | 0.00 | 80 | 1012.6 |
| 20260831014213 | 16 | 203 | 0.0 | 0.0 | 0.00 | 0.00 | 0.00 | 79 | 1012.2 |
| 20260831013714 | 16 | 209 | 0.0 | 0.0 | 0.00 | 0.00 | 0.00 | 79 | 1012.2 |
| 20260831013204 | 16 | 210 | 0.0 | 0.0 | 0.00 | 0.00 | 0.00 | 79 | 1012.2 |
| 20260831012715 | 16 | 210 | 0.0 | 0.0 | 0.00 | 0.00 | 0.00 | 79 | 1012.6 |
| 20260831012221 | 16 | 210 | 0.0 | 0.0 | 0.00 | 0.00 | 0.00 | 79 | 1012.6 |
| 20260831011709 | 16 | 210 | 0.0 | 0.0 | 0.00 | 0.00 | 0.00 | 79 | 1012.6 |
| 20260831011212 | 16 | 210 | 0.0 | 0.0 | 0.00 | 0.00 | 0.00 | 80 | 1012.7 |
| 20260831010715 | 16 | 210 | 0.0 | 0.0 | 0.00 | 0.00 | 0.00 | 80 | 1012.7 |
| 20260831010220 | 16 | 210 | 0.0 | 0.0 | 0.00 | 0.00 | 0.00 | 80 | 1012.7 |
| 20260831005711 | 16 | 211 | 0.0 | 0.0 | 0.00 | 0.00 | 0.00 | 79 | 1012.8 |
| 20260831005214 | 16 | 213 | 0.0 | 0.0 | 0.00 | 0.00 | 0.00 | 79 | 1012.8 |
| 20260831004720 | 16 | 213 | 0.0 | 0.0 | 0.00 | 0.00 | 0.00 | 79 | 1012.8 |
| 20260831004221 | 16 | 230 | 0.0 | 0.0 | 0.00 | 0.00 | 0.00 | 78 | 1013.0 |
| 20260831003720 | 16 | 231 | 0.0 | 0.0 | 0.00 | 0.00 | 0.00 | 78 | 1013.0 |
| 20260831003208 | 16 | 232 | 0.0 | 0.0 | 0.00 | 0.00 | 0.00 | 77 | 1013.0 |
| 20260831002715 | 16 | 232 | 0.0 | 0.0 | 0.00 | 0.00 | 0.00 | 77 | 1013.2 |
| 20260831002223 | 16 | 232 | 0.0 | 0.0 | 0.00 | 0.00 | 0.00 | 77 | 1013.2 |
| 20260831001722 | 16 | 232 | 0.0 | 0.0 | 0.00 | 0.00 | 0.00 | 77 | 1013.2 |
| 20260831001221 | 17 | 232 | 0.0 | 0.0 | 0.00 | 0.00 | 0.00 | 76 | 1013.2 |
| 20260831000726 | 17 | 238 | 0.0 | 0.0 | 0.00 | 0.00 | 0.00 | 76 | 1013.2 |
| 20260831000208 | 17 | 234 | 0.0 | 0.0 | 0.00 | 0.00 | 0.00 | 76 | 1013.2 |
| 20260830235720 | 17 | 232 | 0.0 | 0.0 | 0.00 | 0.00 | 0.00 | 76 | 1013.2 |
| 20260830235225 | 17 | 232 | 0.0 | 0.0 | 0.00 | 0.00 | 0.00 | 76 | 1013.2 |
| 20260830234714 | 17 | 232 | 0.0 | 0.0 | 0.00 | 0.00 | 0.00 | 75 | 1013.2 |